Overview Statistics Trail Chart Weather Telemetry Raw packets
 

This is the latest recevied weather packets stored in our database for station/object IU5JAE-13. If no packets are shown the sender has not sent any weather packets the latest 10 day(s).

<< 38 39 40 41 42 43 44 >>
Time Temp. Humidity Pressure Rain* Wind** Luminosity Snow
1788127831 19.44° C 83% 1017.3 hPa 0 mm - 0 W/m² -
1788127230 19.44° C 82% 1017.3 hPa 0 mm - 0 W/m² -
1788126627 20° C 81% 1017.4 hPa 0 mm - 0 W/m² -
1788126024 20° C 81% 1017.3 hPa 0 mm - 0 W/m² -
1788125422 20° C 80% 1017.3 hPa 0 mm - 0 W/m² -
1788124819 20.56° C 78% 1017.2 hPa 0 mm - 0 W/m² -
1788124217 20.56° C 78% 1017.2 hPa 0 mm - 0 W/m² -
1788123635 20.56° C 78% 1017 hPa 0 mm - 0 W/m² -
1788123032 20.56° C 79% 1017 hPa 0 mm - 0 W/m² -
1788122430 20.56° C 76% 1017.1 hPa 0 mm - 0 W/m² -
1788121827 21.11° C 77% 1017.3 hPa 0 mm - 0 W/m² -
1788121225 21.67° C 75% 1017.1 hPa 0 mm - 0 W/m² -
1788120623 21.67° C 72% 1017.1 hPa 0 mm - 0 W/m² -
1788120020 21.11° C 71% 1017.1 hPa 0 mm - 0 W/m² -
1788119418 21.67° C 70% 1017.1 hPa 0 mm - 0 W/m² -
1788118815 21.67° C 70% 1017.2 hPa 0 mm - 0 W/m² -
1788118233 22.22° C 68% 1017.1 hPa 0 mm - 0 W/m² -
1788117631 22.22° C 68% 1017 hPa 0 mm - 0 W/m² -
1788117028 22.78° C 67% 1016.9 hPa 0 mm - 0 W/m² -
1788116426 22.78° C 65% 1016.9 hPa 0 mm - 0 W/m² -
1788115823 23.33° C 66% 1016.7 hPa 0 mm - 0 W/m² -
1788115221 23.33° C 62% 1016.8 hPa 0 mm - 0 W/m² -
1788114630 23.33° C 64% 1016.7 hPa 0 mm - 0 W/m² -
1788114016 23.89° C 64% 1016.5 hPa 0 mm - 0 W/m² -
1788113434 23.89° C 63% 1016.4 hPa 0 mm - 1 W/m² -

* Rain latest hour (hover to see other rain measurements)
** Current wind speed in m/s (hover to see current wind gust speed)